Tracking 18851 objects as of 25-Nov-2017
HD Live streaming from Space Station
objects crossing your sky now

TDRS 4

Track TDRS 4 now!
TDRS 4 is classified as:


NORAD ID: 19883
Int'l Code: 1989-021B
Perigee: 36,205.8 km
Apogee: 36,400.7 km
Inclination: 12.9 °
Period: 1,462.2 minutes
Semi major axis: 42674 km
RCS: 20.9264 m2 (large)
Launch date: March 13, 1989
Source: United States (US)
Launch site: AIR FORCE EASTERN TEST RANGE (AFETR)

Tracking and communications with space shuttle, other missions.
aabbcc
Your satellite tracking list
Your tracking list is empty




NASA's NSSDC Master Catalog

Two Line Element Set (TLE):
1 19883U 89021B   17329.20643238 -.00000017  00000-0  00000+0 0  9997
2 19883  12.9238  15.6711 0022834 246.2312 143.7681  0.98481443277249
Source of the keplerian elements: AFSPC